• MPC Preparation (Info)

  • MPEC 2019-M80 : 2019 MD1

    The following Minor Planet Electronic Circular may be linked-to from your own Web pages, but must not otherwise be redistributed electronically.

    A form allowing access to any MPEC is at the bottom of this page.


    Read MPEC 2019-M79 Read MPEC 2019-M81


    M.P.E.C. 2019-M80                                Issued 2019 June 27, 16:08 UT  
    
         The Minor Planet Electronic Circulars contain information on unusual
             minor planets and routine data on comets.  They are published
        on behalf of Division F of the International Astronomical Union by the
              Minor Planet Center, Smithsonian Astrophysical Observatory,
                              Cambridge, MA 02138, U.S.A.
    
                 Prepared using the Tamkin Foundation Computer Network
    
                                  MPC@CFA.HARVARD.EDU
                URL https://www.minorplanetcenter.net/    ISSN 1523-6714
    
                                    2019 MD1                                 
    
    Observations:
         K19M01D  C2019 06 22.34873816 31 47.438-21 25 24.70         21.5 GVEM080F51
         K19M01D  C2019 06 22.35915616 31 49.916-21 24 18.23         21.4 GVEM080F51
         K19M01D  C2019 06 22.36958416 31 52.414-21 23 10.31         21.0 GVEM080F51
         K19M01D  C2019 06 22.37998016 31 54.887-21 22 03.31         21.2 GVEM080F51
         K19M01D* C2019 06 25.37621 16 51 01.128-14 13 26.83         20.8 wUEM080F51
         K19M01D  C2019 06 25.38811 16 51 05.999-14 11 12.81         20.6 wUEM080F51
         K19M01D  C2019 06 25.40002 16 51 10.916-14 08 57.93         21.1 wUEM080F51
         K19M01D  C2019 06 25.41190 16 51 15.830-14 06 43.12         21.0 wUEM080F51
         K19M01D  C2019 06 26.25403 16 58 41.65 -11 14 01.5          21.2 GVEM080I52
         K19M01D  C2019 06 26.25549 16 58 42.38 -11 13 42.6          21.2 GVEM080I52
         K19M01D  C2019 06 26.25695 16 58 43.07 -11 13 22.3          20.5 GVEM080I52
         K19M01D  C2019 06 27.22501 17 08 47.85 -07 13 09.8          21.0 GVEM080I52
         K19M01D  C2019 06 27.22795 17 08 49.62 -07 12 21.6          20.1 GVEM080I52
         K19M01D  C2019 06 27.23128 17 08 51.60 -07 11 26.9          21.1 GVEM080I52
    
    Observer details:
    F51 Pan-STARRS 1, Haleakala.  Observers J. Bulger, K. Chambers, T. Lowe,
        E. Magnier, A. Schultz, M. Willman.  Measurers S. Chastel, M. Huber,
        Y. Ramanjooloo, R. Wainscoat, R. Weryk, K. Chambers, T. de Boer, L. Denneau,
        J. Fairlamb, H. Flewelling, C.-C. Lin, E. Magnier.  
        1.8-m Ritchey-Chretien + CCD.
    I52 Steward Observatory, Mt. Lemmon Station.  Observers R. A. Kowalski,
        G. J. Leonard.  Measurers B. M. Africano, E. J. Christensen, G. A. Farneth,
        D. C. Fuls, A. R. Gibbs, A. D. Grauer, H. Groeller, R. A. Kowalski,
        S. M. Larson, G. J. Leonard, T. A. Pruyne, D. Rankin, R. L. Seaman,
        F. C. Shelly.  1.0-m reflector + CCD.
    
    Orbital elements:
    2019 MD1                                                 Earth MOID = 0.0260 AU
    Epoch 2019 Apr. 27.0 TT = JDT 2458600.5                 MPC
    M 330.61384              (2000.0)            P               Q
    n   0.32386471     Peri.   40.64829     +0.63328540     +0.76662192
    a   2.1000371      Node   268.91703     -0.73469903     +0.55246816
    e   0.5303163      Incl.    6.08708     -0.24324254     +0.32721516
    P   3.04           H   26.4           G   0.15           U   5
    Residuals in seconds of arc
    190622 F51  0.2+  0.2+    190625 F51  0.0   0.1-    190626 I52  0.3-  0.3+
    190622 F51  0.1+  0.3-    190625 F51  0.1+  0.1+    190627 I52  0.2+  0.1+
    190622 F51  0.1+  0.3+    190625 F51  0.0   0.1-    190627 I52  0.1+  0.0
    190622 F51  0.1-  0.1-    190626 I52  0.1+  0.3+    190627 I52  0.3-  0.1-
    190625 F51  0.3+  0.0     190626 I52  0.2+  0.4-
    
    Ephemeris:
    2019 MD1                 a,e,i = 2.10, 0.53, 6                   q = 0.9864
    Date    TT    R. A. (2000) Decl.     Delta      r    Elong.  Phase     V
    2019 05 28    15 56 56.9 -34 28 24   0.2154  1.2235   166.1    11.4    24.2
    ...
    2019 06 12    16 04 32.9 -31 02 31   0.1199  1.1299   161.7    16.4    22.9
    ...
    2019 06 20    16 21 54.4 -24 54 30   0.07492 1.0866   159.4    19.2    21.9
    ...
    2019 06 26    16 56 20.0 -12 07 27   0.04483 1.0582   157.8    21.3    20.8
    2019 06 27    17 06 14.4 -08 11 28   0.04046 1.0538   156.5    22.6    20.6
    2019 06 28    17 18 13.5 -03 20 28   0.03643 1.0496   154.3    24.8    20.5
    ...
    2019 07 04    19 59 47.1 +44 59 22   0.02760 1.0266   110.2    68.3    21.1
    ...
    2019 07 12    00 57 41.1 +55 50 02   0.05779 1.0035    75.3   101.5    23.9
    ...
    2019 07 27    02 36 37.5 +47 56 52   0.1332  0.9861    73.5    99.1    25.6
    
    A. U. Tomatic                (C) Copyright 2019 MPC           M.P.E.C. 2019-M80
    


    Read MPEC 2019-M79 Read MPEC 2019-M81


    MPEC number:

    Enter an MPEC number in one of the following forms:

    • 1997-B01 (the full form)
    • J97B01 (the packed version of the full form)
    • B01 (the abbreviated form)